Location: Newark
(32.9833°N, 70.6000°E)
Time: 04:35:08
(UTC+00:00)

LightSail 2 - Visible Passes

Search period start: 05 April 2020 00:00
Search period end: 15 April 2020 00:00
Orbit: 694 x 725 km, 24.0° (Epoch: 04 April)

Date Brightness Start Highest point End Pass type
(mag) Time Alt. Az. Time Alt. Az. Time Alt. Az.
05 Apr 6.8 23:49:51 13° SSW 23:52:44 20° SSE 23:56:26 10° ESE visible
06 Apr 7.1 22:54:11 17° SSE 22:54:11 17° SSE 22:56:51 10° SE visible
07 Apr 6.5 23:37:22 19° SSW 23:39:23 25° S 23:43:29 10° ESE visible
08 Apr 6.9 22:41:39 20° SE 22:41:39 20° SE 22:44:06 10° ESE visible
09 Apr 6.3 00:20:49 10° WSW 00:25:10 29° S 00:29:31 10° ESE visible
09 Apr 6.2 23:24:48 25° SSW 23:26:01 28° S 23:30:18 10° ESE visible
10 Apr 7.0 22:29:04 19° SE 22:29:04 19° SE 22:31:02 10° ESE visible
11 Apr 6.3 00:07:57 12° WSW 00:11:47 28° S 00:16:05 10° SE visible
11 Apr 6.1 23:12:14 29° S 23:12:37 29° S 23:16:57 10° ESE visible
12 Apr 7.3 22:16:33 16° SE 22:16:33 16° SE 22:17:46 10° ESE visible
12 Apr 6.4 23:55:26 15° SW 23:58:21 25° S 00:02:28 10° SE visible
13 Apr 6.3 22:59:47 27° S 22:59:47 27° S 23:03:26 10° SE visible
14 Apr 7.7 22:04:12 11° ESE 22:04:12 11° ESE 22:04:19 10° ESE visible
14 Apr 6.6 23:43:05 17° SW 23:44:52 21° SSW 23:48:34 10° SE visible
